EW4941 Weather Reports


time (UTC)temp
F
wind
direction
speed
knots
gust
knots
rain 1hr
in
rain 24hr
in
rain mn
in
humidity
%
barometer
mb
20260506002706 59 0 0.0 0.0 0.01 0.05 0.05 92 1006.2
20260506002205 59 0 0.0 0.0 0.01 0.05 0.05 92 1006.2
20260506001707 59 0 0.0 0.0 0.01 0.05 0.05 92 1006.1
20260506001435 59 0 0.0 0.0 0.02 0.05 0.05 92 1006.3
20260506000704 59 0 0.0 0.0 0.02 0.05 0.05 92 1006.2
20260506000434 60 0 0.0 0.0 0.03 0.05 0.05 91 1006.1
20260505235703 60 0 0.0 0.0 0.03 0.05 0.05 91 1005.9
20260505235203 60 0 0.0 3.5 0.03 0.05 0.05 91 1005.8
20260505234703 60 0 0.0 3.5 0.04 0.05 0.05 91 1005.7
20260505234202 60 0 0.0 0.0 0.04 0.05 0.05 90 1005.7
20260505233702 60 0 0.0 0.0 0.04 0.04 0.04 89 1006.3
20260505233204 61 0 0.0 0.0 0.04 0.04 0.04 88 1006.3
20260505232702 61 0 0.0 0.0 0.04 0.04 0.04 87 1006.3
20260505232205 61 0 0.0 1.7 0.04 0.04 0.04 87 1006.3
20260505231701 62 0 1.7 7.0 0.04 0.04 0.04 85 1006.2
20260505231201 62 0 3.5 12.2 0.03 0.03 0.03 82 1006.4
20260505230700 63 0 5.2 12.2 0.03 0.03 0.03 81 1006.6
20260505230434 63 0 6.1 12.2 0.02 0.02 0.02 78 1006.3
20260505225701 64 0 6.1 13.0 0.02 0.02 0.02 77 1006.1
20260505225159 65 0 9.6 18.2 0.02 0.02 0.02 73 1005.8
20260505224658 67 0 8.7 18.2 0.01 0.01 0.01 69 1005.8
20260505224157 69 0 7.8 18.2 0.01 0.01 0.01 61 1005.4
20260505223655 69 0 7.0 18.2 0.00 0.00 0.00 54 1005.4
20260505223158 69 0 4.3 13.0 0.00 0.00 0.00 53 1004.6
20260505222654 69 0 5.2 13.0 0.00 0.00 0.00 53 1003.5
20260505222153 70 0 7.0 17.4 0.00 0.00 0.00 53 1003.2
20260505221654 70 0 7.0 17.4 0.00 0.00 0.00 52 1003.1
20260505221151 70 0 6.1 15.6 0.00 0.00 0.00 52 1003.0
20260505220651 71 0 5.2 13.0 0.00 0.00 0.00 51 1002.8
20260505220149 71 0 6.1 14.8 0.00 0.00 0.00 51 1002.8
20260505215649 71 0 7.0 17.4 0.00 0.00 0.00 51 1002.9
20260505215423 72 0 6.1 17.4 0.00 0.00 0.00 51 1002.7
20260505214652 72 0 6.1 14.8 0.00 0.00 0.00 50 1002.6
20260505214149 73 0 6.1 15.6 0.00 0.00 0.00 50 1002.6
20260505213647 73 0 6.1 15.6 0.00 0.00 0.00 49 1002.4
20260505213147 73 0 6.1 14.8 0.00 0.00 0.00 50 1002.3
20260505212920 73 0 7.0 17.4 0.00 0.00 0.00 49 1002.3
20260505212148 73 0 7.0 17.4 0.00 0.00 0.00 50 1002.1
20260505211647 74 0 6.1 17.4 0.00 0.00 0.00 49 1002.1
20260505211147 74 0 6.1 17.4 0.00 0.00 0.00 50 1002.3
20260505210649 73 0 6.1 17.4 0.00 0.00 0.00 49 1001.9
20260505210147 73 0 6.1 13.0 0.00 0.00 0.00 50 1002.0
20260505205647 74 0 6.1 18.2 0.00 0.00 0.00 48 1002.3
20260505205145 74 0 7.0 20.0 0.00 0.00 0.00 49 1002.3
20260505204648 74 0 7.0 20.0 0.00 0.00 0.00 49 1002.4
20260505204145 74 0 7.0 13.9 0.00 0.00 0.00 49 1002.3
20260505203647 74 0 6.1 13.9 0.00 0.00 0.00 49 1002.2
20260505203148 74 0 6.1 13.9 0.00 0.00 0.00 49 1002.4
20260505202647 74 0 6.1 14.8 0.00 0.00 0.00 48 1002.4
20260505202144 74 0 7.0 14.8 0.00 0.00 0.00 49 1002.4
20260505201643 75 0 7.0 14.8 0.00 0.00 0.00 47 1002.4
20260505201144 75 0 7.0 17.4 0.00 0.00 0.00 47 1002.5
20260505200914 75 0 7.8 17.4 0.00 0.00 0.00 47 1002.6
20260505200141 75 0 7.0 17.4 0.00 0.00 0.00 47 1002.6
20260505195915 76 0 7.0 16.5 0.00 0.00 0.00 48 1002.7
20260505195141 76 0 7.0 16.5 0.00 0.00 0.00 48 1002.7
20260505194641 76 0 7.8 15.6 0.00 0.00 0.00 46 1002.7
20260505194141 76 0 6.1 15.6 0.00 0.00 0.00 48 1002.8
20260505193643 76 0 6.1 13.9 0.00 0.00 0.00 46 1002.7
20260505193142 76 0 6.1 17.4 0.00 0.00 0.00 48 1002.7
20260505192916 76 0 6.1 17.4 0.00 0.00 0.00 47 1002.8
20260505192140 76 0 5.2 14.8 0.00 0.00 0.00 48 1002.8
20260505191640 76 0 5.2 14.8 0.00 0.00 0.00 48 1002.8
20260505191413 76 0 7.0 17.4 0.00 0.00 0.00 48 1003.0
20260505190908 75 0 7.8 17.4 0.00 0.00 0.00 49 1003.1
20260505190138 75 0 7.0 15.6 0.00 0.00 0.00 48 1003.2
20260505185637 75 0 7.0 14.8 0.00 0.00 0.00 49 1003.3
20260505185137 76 0 7.0 14.8 0.00 0.00 0.00 48 1003.3
20260505184908 77 0 6.1 13.9 0.00 0.00 0.00 47 1003.3
20260505184138 77 0 7.0 13.9 0.00 0.00 0.00 46 1003.5
20260505183638 77 0 6.1 14.8 0.00 0.00 0.00 45 1003.5
20260505183138 77 0 5.2 14.8 0.00 0.00 0.00 46 1003.7
20260505182638 77 0 5.2 13.0 0.00 0.00 0.00 46 1003.6
20260505182138 77 0 5.2 14.8 0.00 0.00 0.00 45 1003.8
20260505181637 78 0 4.3 14.8 0.00 0.00 0.00 45 1003.6
20260505181406 78 0 5.2 13.9 0.00 0.00 0.00 46 1003.6
20260505180634 77 0 6.1 13.9 0.00 0.00 0.00 45 1003.7
20260505180404 78 0 5.2 14.8 0.00 0.00 0.00 45 1003.9
20260505175635 79 0 4.3 14.8 0.00 0.00 0.00 44 1003.8
20260505175132 79 0 5.2 15.6 0.00 0.00 0.00 40 1003.9
20260505174631 78 0 6.1 15.6 0.00 0.00 0.00 44 1004.2
20260505174132 78 0 6.1 15.6 0.00 0.00 0.00 43 1004.1
20260505173630 78 0 6.1 15.6 0.00 0.00 0.00 45 1004.3
20260505173128 78 0 5.2 15.6 0.00 0.00 0.00 46 1004.3
20260505172626 77 0 6.1 15.6 0.00 0.00 0.00 43 1004.3
20260505172359 78 0 5.2 12.2 0.00 0.00 0.00 45 1004.5
20260505171856 77 0 4.3 10.4 0.00 0.00 0.00 44 1004.6
20260505171126 77 0 4.3 13.0 0.00 0.01 0.00 46 1004.5
20260505170625 76 0 5.2 13.0 0.00 0.01 0.00 45 1004.7
20260505170123 76 0 6.1 14.8 0.00 0.01 0.00 45 1004.8
20260505165624 76 0 5.2 14.8 0.00 0.01 0.00 45 1005.0
20260505165129 75 0 5.2 13.0 0.00 0.01 0.00 45 1005.1
20260505165123 76 0 5.2 12.2 0.00 0.01 0.00 46 1005.2
20260505164122 75 0 6.1 13.0 0.00 0.01 0.00 46 1005.1
20260505163625 74 0 5.2 15.6 0.00 0.01 0.00 47 1005.2
20260505163123 74 0 4.3 15.6 0.00 0.01 0.00 47 1005.1
20260505162620 73 0 4.3 14.8 0.00 0.01 0.00 49 1005.5
20260505162121 74 0 5.2 14.8 0.00 0.01 0.00 46 1005.6
20260505161621 74 0 6.1 14.8 0.00 0.01 0.00 46 1005.7
20260505161120 74 0 5.2 14.8 0.00 0.01 0.00 45 1005.6
20260505160851 74 0 4.3 11.3 0.00 0.01 0.00 45 1005.8
20260505160120 74 0 4.3 12.2 0.00 0.01 0.00 47 1006.0
20260505153121 73 0 4.3 15.6 0.00 0.01 0.00 47 1006.2
20260505152623 73 0 4.3 12.2 0.00 0.01 0.00 47 1006.2
20260505152120 73 0 4.3 11.3 0.00 0.01 0.00 46 1006.3
20260505151620 72 0 3.5 11.3 0.00 0.01 0.00 49 1006.4
20260505151119 71 0 3.5 8.7 0.00 0.01 0.00 52 1006.6
20260505150617 69 0 3.5 10.4 0.00 0.01 0.00 49 1006.7
20260505150116 69 0 3.5 11.3 0.00 0.01 0.00 50 1006.7
20260505140610 67 0 4.3 10.4 0.00 0.01 0.00 53 1006.5
20260505140340 67 0 4.3 10.4 0.00 0.01 0.00 53 1006.4
20260505124606 59 0 1.7 7.8 0.00 0.01 0.00 63 1007.3
20260505124107 59 0 2.6 9.6 0.00 0.01 0.00 63 1007.4
20260505123604 58 0 2.6 9.6 0.00 0.01 0.00 66 1007.3
20260505123105 58 0 1.7 8.7 0.00 0.01 0.00 65 1007.3
20260505122604 58 0 2.6 7.8 0.00 0.01 0.00 63 1007.3
20260505122103 58 0 2.6 8.7 0.00 0.01 0.00 64 1007.3
20260505121605 58 0 2.6 8.7 0.00 0.01 0.00 62 1007.3
20260505121106 58 0 2.6 7.8 0.00 0.01 0.00 63 1007.4
20260505120603 58 0 2.6 8.7 0.00 0.01 0.00 62 1007.5
20260505115602 57 0 3.5 12.2 0.00 0.01 0.00 65 1007.4
20260505115103 57 0 3.5 12.2 0.00 0.01 0.00 64 1007.4
20260505114600 57 0 2.6 10.4 0.00 0.01 0.00 64 1007.6
20260505114333 57 0 1.7 9.6 0.00 0.01 0.00 66 1007.6
20260505113601 56 0 1.7 7.8 0.00 0.01 0.00 67 1007.6
20260505113101 56 0 2.6 5.2 0.00 0.01 0.00 68 1007.6
20260505112603 56 0 1.7 5.2 0.00 0.01 0.00 69 1007.5
20260505112102 55 0 0.9 3.5 0.00 0.01 0.00 70 1007.5
20260505111600 54 0 0.9 3.5 0.00 0.01 0.00 71 1007.5
20260505111101 53 0 0.9 2.6 0.00 0.01 0.00 72 1007.4
20260505110601 53 0 0.0 2.6 0.00 0.01 0.00 73 1007.4
20260505102100 51 0 0.0 2.6 0.00 0.01 0.00 72 1007.5
20260505101557 51 0 0.0 0.9 0.00 0.01 0.00 72 1007.5
20260505101059 51 0 0.0 0.0 0.00 0.01 0.00 73 1007.4
20260505100558 51 0 0.0 0.0 0.00 0.01 0.00 73 1007.4
20260505100059 51 0 0.0 0.0 0.00 0.01 0.00 73 1007.4
20260505095558 51 0 0.0 0.0 0.00 0.01 0.00 72 1007.2
20260505095057 51 0 0.0 0.0 0.00 0.01 0.00 72 1007.3
20260505094601 51 0 0.0 2.6 0.00 0.01 0.00 72 1007.4
20260505094057 51 0 0.9 3.5 0.00 0.01 0.00 71 1007.4
20260505093556 51 0 1.7 3.5 0.00 0.01 0.00 71 1007.3
20260505093055 51 0 1.7 3.5 0.00 0.01 0.00 71 1007.3
20260505092555 52 0 0.9 3.5 0.00 0.01 0.00 71 1007.3
20260505092053 52 0 1.7 3.5 0.00 0.01 0.00 70 1007.3
20260505091555 52 0 1.7 3.5 0.00 0.01 0.00 70 1007.3
20260505091053 52 0 1.7 4.3 0.00 0.01 0.00 70 1007.3
20260505090553 52 0 1.7 4.3 0.00 0.01 0.00 70 1007.4
20260505090053 52 0 1.7 4.3 0.00 0.01 0.00 70 1007.3
20260505085556 52 0 1.7 4.3 0.00 0.01 0.00 70 1007.4
20260505085055 52 0 1.7 4.3 0.00 0.01 0.00 70 1007.4
20260505084555 52 0 1.7 4.3 0.00 0.01 0.00 70 1007.4
20260505084054 52 0 1.7 5.2 0.00 0.01 0.00 70 1007.5
20260505083554 52 0 1.7 5.2 0.00 0.01 0.00 70 1007.5
20260505083326 52 0 1.7 8.7 0.00 0.01 0.00 70 1007.5
20260505082553 52 0 2.6 8.7 0.00 0.01 0.00 71 1007.5
20260505082325 51 0 1.7 7.0 0.00 0.01 0.00 71 1007.5
20260505081555 51 0 1.7 4.3 0.00 0.01 0.00 72 1007.5
20260505081051 51 0 0.9 4.3 0.00 0.01 0.00 72 1007.6
20260505080551 51 0 0.9 3.5 0.00 0.01 0.00 72 1007.5
20260505080050 51 0 0.9 3.5 0.00 0.01 0.00 72 1007.5
20260505075817 51 0 0.9 2.6 0.00 0.01 0.00 72 1007.5
20260505075317 51 0 0.0 1.7 0.00 0.01 0.00 71 1007.6
20260505074545 51 0 0.0 1.7 0.00 0.01 0.00 71 1007.5
20260505074041 51 0 0.9 2.6 0.00 0.01 0.00 71 1007.6
20260505073540 51 0 0.9 2.6 0.00 0.01 0.00 71 1007.6
20260505073037 51 0 0.9 3.5 0.00 0.01 0.00 71 1007.5
20260505072537 51 0 0.9 4.3 0.00 0.01 0.00 71 1007.5
20260505072037 51 0 1.7 4.3 0.00 0.01 0.00 72 1007.5
20260505071533 50 0 0.9 3.5 0.00 0.01 0.00 72 1007.5
20260505071035 50 0 0.9 3.5 0.00 0.01 0.00 72 1007.5
20260505070534 50 0 0.9 3.5 0.00 0.01 0.00 72 1007.5
20260505070305 50 0 0.9 3.5 0.00 0.01 0.00 72 1007.5
20260505065532 50 0 0.9 3.5 0.00 0.01 0.00 72 1007.6
20260505065028 50 0 0.9 3.5 0.00 0.01 0.00 72 1007.6
20260505064529 50 0 0.0 2.6 0.00 0.01 0.00 72 1007.6
20260505064027 50 0 0.0 0.9 0.00 0.01 0.00 73 1007.5
20260505063801 50 0 0.0 0.0 0.00 0.01 0.00 73 1007.5
20260505063027 50 0 0.0 0.0 0.00 0.01 0.00 73 1007.5
20260505062528 50 0 0.0 0.9 0.00 0.01 0.00 73 1007.5
20260505062027 50 0 0.0 1.7 0.00 0.01 0.00 72 1007.5
20260505061525 50 0 0.0 2.6 0.00 0.01 0.00 72 1007.5
20260505061024 50 0 0.9 3.5 0.00 0.01 0.00 73 1007.4
20260505060754 49 0 0.9 3.5 0.00 0.01 0.00 73 1007.4
20260505060257 49 0 0.0 4.3 0.00 0.01 0.00 73 1007.4
20260505055523 49 0 0.9 4.3 0.00 0.01 0.00 73 1007.4
20260505055023 49 0 0.0 1.7 0.00 0.01 0.00 73 1007.5
20260505054524 49 0 0.0 1.7 0.00 0.01 0.00 73 1007.5
20260505054024 49 0 0.9 3.5 0.00 0.01 0.00 73 1007.5
20260505053523 49 0 0.9 3.5 0.00 0.01 0.00 74 1007.5
20260505053024 49 0 0.9 3.5 0.00 0.01 0.00 75 1007.5
20260505052522 49 0 0.0 3.5 0.00 0.01 0.00 75 1007.6
20260505052022 49 0 0.0 1.7 0.00 0.01 0.00 76 1007.7
20260505051522 49 0 0.9 2.6 0.00 0.01 0.00 76 1007.6
20260505051021 48 0 0.9 3.5 0.00 0.01 0.00 77 1007.6
20260505050521 48 0 0.9 3.5 0.00 0.01 0.00 78 1007.5
20260505041746 47 0 0.0 0.0 0.00 0.01 0.00 80 1007.2
20260505041012 48 0 0.0 0.0 0.00 0.01 0.00 78 1007.2
20260505040511 48 0 0.0 0.0 0.00 0.01 0.00 78 1007.2
20260505040012 49 0 0.0 0.0 0.00 0.01 0.00 77 1006.9
20260505035508 49 0 0.0 0.0 0.00 0.01 0.01 76 1006.9
20260505035009 50 0 0.0 0.0 0.00 0.01 0.01 76 1006.8
20260505034509 50 0 0.0 0.0 0.00 0.01 0.01 76 1006.7
20260505034241 50 0 0.0 2.6 0.00 0.01 0.01 76 1006.7
20260505033508 50 0 0.0 2.6 0.00 0.01 0.01 76 1006.7
20260505033010 50 0 0.0 1.7 0.00 0.01 0.01 76 1006.7
20260505032510 49 0 0.9 2.6 0.00 0.01 0.01 76 1006.6
20260505032010 50 0 0.9 3.5 0.00 0.01 0.01 75 1006.6
20260505031508 50 0 0.9 3.5 0.00 0.01 0.01 75 1006.5
20260505031013 51 0 0.9 2.6 0.00 0.01 0.01 73 1006.7
20260505031009 50 0 0.9 3.5 0.00 0.01 0.01 74 1006.7
20260505030006 51 0 0.0 2.6 0.00 0.01 0.01 73 1006.7
20260505025508 51 0 0.0 0.0 0.00 0.01 0.01 72 1006.7
20260505025005 51 0 0.0 0.0 0.00 0.01 0.01 72 1006.7
20260505024502 52 0 0.0 0.0 0.00 0.01 0.01 72 1006.8
20260505024001 52 0 0.0 0.0 0.00 0.01 0.01 71 1006.8
20260505023731 52 0 0.0 0.0 0.00 0.01 0.01 70 1006.7
20260505023001 52 0 0.0 0.0 0.00 0.01 0.01 70 1006.8
20260505022459 52 0 0.0 0.0 0.00 0.01 0.01 70 1006.8
20260505021957 52 0 0.0 0.0 0.00 0.01 0.01 70 1006.8
20260505021458 52 0 0.0 0.0 0.00 0.01 0.01 70 1006.8
20260505020956 52 0 0.0 0.0 0.00 0.01 0.01 70 1006.8
20260505020456 53 0 0.0 0.0 0.00 0.01 0.01 69 1006.7
20260505015956 53 0 0.0 0.0 0.00 0.01 0.01 69 1006.7
20260505015726 53 0 0.0 0.0 0.00 0.01 0.01 69 1006.7
20260505015224 53 0 0.0 0.0 0.00 0.01 0.01 69 1006.6
20260505014453 53 0 0.0 0.0 0.00 0.01 0.01 68 1006.6
20260505013953 53 0 0.0 0.0 0.00 0.01 0.01 68 1006.6
20260505013452 54 0 0.0 0.0 0.00 0.01 0.01 68 1006.5
20260505012955 54 0 0.0 0.0 0.00 0.01 0.01 68 1006.5
20260505012452 54 0 0.0 0.0 0.00 0.01 0.01 68 1006.4
20260505011952 54 0 0.0 0.0 0.00 0.01 0.01 68 1006.4
20260505011452 54 0 0.0 1.7 0.00 0.01 0.01 67 1006.4
20260505010953 54 0 0.9 2.6 0.00 0.01 0.01 67 1006.3
20260505010452 54 0 0.9 2.6 0.00 0.01 0.01 67 1006.3
20260505005952 54 0 0.0 1.7 0.00 0.01 0.01 67 1006.3
20260505005453 54 0 0.0 2.6 0.00 0.01 0.01 66 1006.2
20260505004952 55 0 0.0 2.6 0.00 0.01 0.01 65 1006.2
20260505004452 55 0 0.0 0.0 0.00 0.01 0.01 65 1006.1
20260505003950 55 0 0.0 0.9 0.00 0.01 0.01 63 1006.0
20260505003453 56 0 0.9 1.7 0.00 0.01 0.01 63 1006.0